Regional Weather Roundup
Issued by NWS Albany, NY

Home | Current Version | Previous Version | Text Only | Print | Product List | Glossary On
Versions: 1 2 3 4 5 6 7 8 9 10 11 12 13 14 15 16 17 18 19 20 21 22 23 24 25 26 27 28 29 30 31 32 33 34 35 36 37 38 39 40 41 42 43 44 45 46 47 48 49 50
000
ASUS41 KALY 200910
RWRALY

NEW YORK STATE HOURLY WEATHER ROUNDUP
NATIONAL WEATHER SERVICE ALBANY NY
500 AM EDT FRI OCT 20 2017

NOTE: "FAIR" INDICATES FEW OR NO CLOUDS BELOW 12,000 FEET WITH NO
SIGNIFICANT WEATHER AND/OR NO OBSTRUCTIONS TO VISIBILITY.

NYZ032-033-038>043-046>054-057>066-NYZ062>081-082-084-201000-
EAST


CITY           SKY/WX    TMP DP  RH WIND       PRES   REMARKS
ALBANY         FAIR      54  44  69 W9        30.08R
GLENS FALLS    FAIR      42  39  89 CALM      30.04R
POUGHKEEPSIE   FAIR      45  42  89 CALM      30.06R
NEWBURGH       CLEAR     52  46  82 W7        30.09R
MONTGOMERY     FAIR      45  43  93 W3        30.09R
WHITE PLAINS   FAIR      56  46  69 W6        30.08R
ISLIP          FAIR      52  48  86 W5        30.07R
NEW YORK CITY  FAIR      63  47  55 W13       30.08R
CENTRAL PARK   FAIR      59  46  62 CALM      30.12R
$$

NYZ005>009-017-018-044>046-055-056-201000-
CENTRAL


CITY           SKY/WX    TMP DP  RH WIND       PRES   REMARKS
FULTON         FAIR      46  42  86 CALM      30.12R
SYRACUSE       FAIR      50  40  68 SW9       30.12R
ROME           FAIR      43  41  93 NW3       30.13R
ELMIRA         FAIR      45  45 100 W5        30.16R
BINGHAMTON     FAIR      49  38  65 W3        30.14R
MONTICELLO     FAIR      50  41  71 NW8       30.11R
$$

NYZ026>034-041>043-087-201000-
NORTH


CITY           SKY/WX    TMP DP  RH WIND       PRES   REMARKS
WATERTOWN      FAIR      50  42  74 W8        30.10R
FORT DRUM      NOT AVBL
OGDENSBURG     FAIR      46  40  82 SW6       30.06R
MASSENA        FAIR      48  39  71 SW5       30.04R
SARANAC LAKE   FAIR      44  35  70 SW7       30.03R
PLATTSBURGH    FAIR      50  35  56 S5        30.00R
$$

NYZ001>004-010>016-019>021-085-201000-
WEST


CITY           SKY/WX    TMP DP  RH WIND       PRES   REMARKS
NIAGARA FALLS    N/A     48  35  60 W5        30.16R
BUFFALO        FAIR      50  37  61 NW7       30.17R
DUNKIRK        FAIR      44  42  93 S5        30.19R
JAMESTOWN      FAIR      46  44  93 CALM      30.20R
WELLSVILLE     FAIR      49  37  63 W7        30.19R
ROCHESTER      FAIR      44  41  89 W5        30.15R
$$

             KEY
       WCI = WIND CHILL INDEX
       VSB = VISIBILITY
       HX  = HEAT INDEX
$$



USA.gov is the U.S. government's official web portal to all federal, state and local government web resources and services.